Temp
77 76 74 72 72 72 72 72 72 72 73 73 72 72 72 72 71 71 70 69 70 70 71 71 71 72 72 72 71 71 70 71 70 69 68 66 64 62 61 61 62 63 63 63 61 59 58 57 56 55 53 52 51 51 52 53 55 56 56 55 55 54 54 54 54 53 52 52 52
77 76 74 72 71 72 72 72 72 72 72 72 72 72 72 72 71 71 71 70 70 70 70 71 71 71 71 71 71 71 71 71 71 70 69 68 66 65 64 63 62 62 62 61 60 58 57 56 55 54 52 51 51 51 52 55 56 56 55 54 54 54 54 54 53 53 52 52 52
77 76 75 73 72 72 72 72 72 72 72 72 72 73 72 71 71 71 71 71 70 70 70 70 70 70 70 70 71 71 71 71 71 70 69 68 67 66 65 64 63 62 62 60 59 58 56 56 54 53 51 50 50 51 53 55 55 55 55 54 55 55 54 54 54 53 53 52 52
77 76 75 73 72 72 72 72 72 72 72 72 72 73 72 70 70 70 70 71 71 70 70 71 71 70 70 70 69 69 69 69 69 69 68 67 65 65 64 64 62 61 60 59 58 57 56 54 53 52 51 51 52 53 54 54 55 56 56 56 55 55 54 54 53 53 52 51 51
76 75 74 73 73 73 73 74 73 73 72 72 72 71 71 70 70 70 69 70 71 70 70 71 71 71 71 70 68 67 67 67 67 67 66 64 63 63 62 62 60 59 58 57 57 56 55 54 53 53 54 55 55 55 55 56 56 56 56 55 55 54 54 53 52 52 51 50 49
76 75 75 74 73 73 74 74 74 73 73 73 72 71 71 71 70 69 69 70 70 70 70 69 70 70 70 69 67 65 64 63 63 63 63 62 61 61 60 59 59 58 56 56 55 56 56 56 55 56 56 56 56 56 57 57 57 56 55 54 54 53 53 52 51 51 50 49 48
76 75 74 74 73 73 73 74 74 74 74 73 72 71 71 71 71 70 70 70 70 69 68 68 69 69 68 68 65 64 62 61 61 61 61 61 60 59 58 57 57 57 56 55 56 56 57 57 57 56 55 55 55 56 57 57 56 55 54 53 53 52 52 51 50 50 49 49 48
75 75 74 74 73 73 73 74 74 74 73 72 72 71 71 70 71 70 70 70 69 69 68 68 68 68 68 66 64 63 62 61 60 60 60 59 58 58 58 57 57 56 56 56 56 57 57 58 57 56 55 55 54 55 56 56 55 54 53 52 51 51 50 50 49 49 49 48 48
75 74 73 73 73 73 73 73 73 73 72 71 71 71 71 70 70 70 70 70 69 68 67 67 67 67 67 65 63 62 62 61 60 59 59 58 58 57 57 56 56 56 55 56 57 57 57 57 57 56 55 54 54 54 54 54 54 53 52 51 50 50 50 50 49 49 49 48 47
73 73 73 72 72 72 72 72 72 71 71 70 70 71 70 69 70 70 70 70 69 67 66 66 66 66 65 64 63 62 62 61 60 59 58 58 58 57 56 56 56 56 56 56 57 57 57 57 57 56 55 55 54 54 53 53 52 51 51 50 49 49 49 49 49 49 48 48 47
73 73 72 72 72 72 71 71 70 70 70 69 70 70 70 69 70 70 70 70 68 67 66 66 66 65 64 63 62 62 61 61 60 59 58 58 57 57 57 57 56 56 56 56 56 56 56 56 56 55 54 54 54 53 52 52 51 51 50 49 49 49 48 49 49 49 48 48 46
73 72 72 72 71 71 70 70 70 69 69 69 69 70 70 70 70 70 69 69 68 66 65 65 65 65 64 63 62 61 61 60 60 59 58 57 57 57 57 57 56 56 55 55 56 56 56 56 55 54 54 54 53 53 52 51 51 50 49 49 48 48 48 48 48 48 48 47 46
72 72 71 71 71 70 70 69 70 70 70 69 69 69 70 69 69 69 68 68 66 65 64 65 65 64 64 63 62 61 60 60 59 58 57 57 56 56 56 56 56 56 56 56 57 57 56 55 54 54 53 53 53 53 52 51 51 50 49 48 48 48 48 48 48 48 48 47 46
72 71 71 70 70 70 69 69 69 70 70 70 69 69 69 68 68 67 67 66 64 63 63 64 64 64 64 63 62 61 60 60 59 58 57 56 56 56 56 57 57 57 58 58 58 58 57 55 54 54 54 53 53 52 52 52 51 50 50 49 49 48 48 47 47 47 47 46 45
71 71 70 70 70 69 70 70 70 70 70 70 69 68 68 67 67 66 66 65 63 63 63 63 63 63 63 63 62 61 60 59 58 58 57 56 56 57 57 58 58 59 59 59 58 57 56 55 55 54 54 53 52 52 52 52 51 51 50 49 49 48 48 47 47 47 46 46 45
71 70 70 69 69 69 69 70 70 70 70 69 69 68 67 66 66 65 64 64 63 62 62 62 62 62 62 61 61 60 60 59 58 58 57 56 56 57 58 59 59 59 58 58 57 56 56 55 54 54 53 52 52 52 51 51 51 50 49 49 49 48 47 47 47 47 47 46 45
70 69 69 69 69 69 69 70 70 70 69 69 68 67 66 65 65 64 63 63 62 62 62 62 61 61 60 60 60 60 60 59 59 58 58 57 57 58 58 58 58 57 57 56 55 55 55 54 54 53 53 52 51 51 51 51 50 49 49 48 48 47 47 48 48 48 47 47 46
69 69 69 69 69 69 69 70 70 69 69 68 67 66 65 64 64 63 63 63 63 62 62 61 61 60 60 59 60 59 59 59 58 58 58 57 57 57 57 57 56 56 55 54 54 54 54 54 53 53 52 51 51 50 50 49 49 49 48 48 47 47 47 48 48 48 48 47 46
69 69 68 68 68 69 69 69 69 69 68 67 66 65 65 64 63 63 63 63 63 63 62 61 60 60 59 59 59 58 58 58 58 58 58 57 57 56 56 56 55 54 53 53 53 53 53 53 53 52 51 50 49 49 49 48 48 48 48 47 47 47 47 47 48 48 47 47 46
69 68 68 68 68 69 69 69 69 68 67 67 66 65 64 64 63 63 63 63 64 63 62 61 60 59 58 58 58 57 56 55 56 56 56 56 55 55 55 55 54 53 52 52 52 52 52 52 52 51 50 49 48 48 47 47 47 47 47 47 46 46 46 46 46 46 46 46 46
69 68 68 68 69 69 69 69 68 68 67 66 66 65 64 63 63 63 63 63 63 63 62 61 60 59 58 58 57 55 54 52 53 53 53 54 54 54 54 54 53 52 52 51 51 51 51 51 50 49 48 47 46 46 46 46 46 46 46 46 46 45 45 45 45 45 45 45 45
69 68 69 69 69 69 69 69 68 67 67 66 66 65 64 63 63 63 63 63 63 62 61 60 60 59 58 57 56 54 52 49 50 50 51 51 52 52 52 52 52 52 51 49 49 50 50 49 48 46 44 43 44 45 45 45 45 45 45 44 44 43 43 43 43 44 44 44 44
69 69 69 69 69 69 69 68 67 67 66 66 65 64 63 63 63 62 62 62 61 60 60 59 59 58 58 57 55 53 51 48 48 48 49 50 50 51 51 51 51 51 50 48 47 47 46 45 43 40 38 38 42 44 45 45 45 44 43 42 42 41 40 40 41 41 42 43 44
69 69 68 69 69 69 68 68 67 66 65 65 64 63 62 62 61 61 61 60 60 59 59 58 57 57 56 55 54 52 50 48 47 47 47 49 49 50 50 51 51 50 49 48 47 46 44 41 38 37 36 38 43 44 45 45 44 43 42 42 41 40 39 40 40 41 42 43 44
68 68 68 68 68 68 68 67 66 65 64 63 63 62 61 61 60 60 59 59 58 58 57 56 55 55 54 53 52 51 50 48 47 46 47 48 49 49 49 50 50 50 49 48 46 45 44 43 41 39 39 41 45 46 45 45 45 44 43 43 42 41 40 41 42 43 43 44 45
67 67 66 67 67 66 66 65 64 63 63 62 62 61 60 60 59 59 58 57 56 56 55 54 53 53 52 52 51 50 49 48 47 47 47 48 48 48 49 49 49 48 47 46 45 45 45 44 43 42 42 44 46 46 46 46 45 44 44 43 43 42 42 42 43 44 44 45 45
65 65 65 65 65 65 64 64 63 62 61 61 61 60 59 59 58 58 57 55 54 54 53 53 52 51 51 50 49 48 48 46 46 47 48 49 48 48 48 49 48 47 45 45 45 45 45 44 44 44 44 45 46 46 46 46 45 45 44 44 44 43 43 43 43 44 44 44 44
64 64 64 64 64 63 63 63 62 61 60 60 60 59 59 58 57 56 55 54 53 52 52 51 51 50 50 49 48 48 47 46 46 47 48 49 48 48 48 48 47 46 45 46 46 46 45 45 45 45 45 46 46 46 45 45 45 45 45 44 44 44 43 44 44 44 44 44 44
63 63 63 63 62 62 62 61 60 60 60 60 60 59 58 57 56 55 54 53 52 51 51 50 50 50 49 48 47 47 46 45 46 47 48 48 48 48 48 47 46 45 45 46 46 46 46 46 45 45 46 46 46 46 46 45 45 45 45 45 45 44 44 44 44 44 44 44 44
63 63 62 62 61 61 61 60 60 60 59 59 58 58 57 56 55 54 53 52 52 51 51 51 51 49 48 48 47 46 45 45 46 47 48 48 48 47 47 47 46 45 45 46 46 46 46 46 46 46 46 45 46 46 46 46 45 45 45 45 45 44 44 44 44 44 44 44 44
63 62 62 61 61 60 60 60 60 59 59 58 57 57 56 55 54 54 53 52 52 52 52 52 51 50 48 48 46 45 44 44 45 46 47 47 47 47 47 47 46 46 46 47 47 47 46 46 46 45 45 45 45 46 46 46 45 45 45 45 44 44 44 44 43 43 43 43 43
62 62 61 61 60 60 60 60 59 59 58 57 57 56 56 55 54 53 53 53 52 52 51 51 50 49 48 47 46 45 44 44 45 46 47 47 47 47 47 47 47 46 46 47 47 47 47 46 46 45 45 45 45 45 46 46 45 45 45 44 44 43 43 44 43 43 44 43 43
62 61 61 60 60 59 59 59 58 58 57 56 56 55 55 54 53 53 53 52 52 51 50 50 49 48 47 46 45 45 44 45 46 47 47 47 47 47 47 47 47 47 47 47 47 47 47 46 46 45 45 44 45 45 46 46 45 45 44 44 43 43 43 43 43 43 43 43 43
61 60 60 59 59 58 58 57 57 57 56 55 55 54 54 53 52 52 51 51 51 51 50 50 49 48 48 47 46 46 46 46 46 47 47 47 48 48 47 47 48 47 47 47 47 47 47 46 46 45 44 44 44 45 45 45 44 44 43 42 42 42 42 42 42 42 43 43 44
60 60 59 59 58 58 57 56 56 55 55 54 53 53 53 52 52 51 51 51 50 50 50 50 49 49 48 48 47 47 47 46 47 47 47 47 48 48 47 47 48 47 47 47 47 47 46 46 45 44 44 43 44 44 44 43 43 42 41 41 41 41 41 41 41 41 41 42 43
60 59 59 58 57 57 56 56 55 54 54 53 52 52 52 51 51 51 51 50 50 49 49 49 49 48 48 47 47 47 47 47 47 47 47 48 48 48 47 47 47 47 47 47 47 47 46 46 45 44 43 43 43 43 43 43 42 41 41 40 40 39 39 40 39 38 38 39 41
60 59 58 57 57 56 56 55 54 54 53 53 52 52 51 51 51 51 50 50 49 48 48 48 48 48 47 47 47 47 47 48 48 47 48 48 48 48 47 47 47 47 47 47 47 47 46 46 44 43 43 43 43 42 42 42 41 41 40 40 40 40 39 40 39 37 36 35 38
60 59 58 57 56 56 55 55 54 53 53 52 52 52 51 51 50 50 50 49 49 48 47 47 47 48 48 48 48 47 47 47 48 48 48 48 48 48 47 47 47 47 47 47 47 46 46 45 44 43 42 42 42 42 42 41 41 40 40 40 40 40 40 40 40 39 37 34 37
60 59 58 57 56 56 55 54 54 54 53 53 52 52 51 51 50 50 50 50 49 49 48 47 48 48 48 48 47 47 46 47 47 48 48 48 48 48 48 47 47 47 47 47 46 46 46 45 43 43 42 42 42 42 41 41 40 40 40 40 40 40 40 40 40 40 39 37 38
59 59 58 57 57 56 55 55 54 54 54 53 52 51 51 50 50 50 50 50 50 49 48 47 48 48 48 47 46 46 46 46 47 48 48 48 48 48 48 48 47 47 47 46 46 46 45 44 43 42 42 42 42 42 41 40 40 40 40 40 40 40 40 40 41 41 40 40 39
59 59 58 57 57 56 55 55 55 54 54 53 52 52 51 51 50 50 50 50 49 48 47 47 47 47 47 46 46 45 45 46 46 47 48 48 48 48 48 48 47 47 47 46 46 45 45 44 43 42 42 42 42 42 41 40 40 39 39 40 40 40 40 40 40 41 41 41 41
MSLP
1011.95 1012.15 1012.43 1012.71 1012.91 1013.07 1013.15 1013.27 1013.39 1013.51 1013.67 1013.83 1014.03 1014.19 1014.31 1014.43 1014.59 1014.75 1014.95 1015.11 1015.19 1015.27 1015.39 1015.55 1015.67 1015.75 1015.87 1016.03 1016.27 1016.47 1016.63 1016.71 1016.83 1017.03 1017.27 1017.51 1017.75 1017.99 1018.15 1018.39 1018.51 1018.63 1018.79 1018.99 1019.27 1019.51 1019.67 1019.83 1020.03 1020.27 1020.55 1020.71 1020.87 1021.03 1021.11 1021.11 1021.07 1021.07 1021.11 1021.19 1021.31 1021.39 1021.43 1021.47 1021.55 1021.67 1021.83 1021.95 1022.03
1011.67 1011.95 1012.23 1012.51 1012.71 1012.91 1013.03 1013.15 1013.27 1013.43 1013.59 1013.75 1013.91 1014.11 1014.23 1014.35 1014.51 1014.67 1014.83 1014.99 1015.11 1015.27 1015.39 1015.51 1015.63 1015.75 1015.91 1016.03 1016.15 1016.31 1016.47 1016.59 1016.75 1016.95 1017.15 1017.35 1017.55 1017.83 1018.07 1018.31 1018.55 1018.71 1018.83 1019.03 1019.31 1019.55 1019.75 1019.91 1020.11 1020.35 1020.59 1020.79 1020.99 1021.11 1021.15 1021.11 1021.11 1021.15 1021.27 1021.39 1021.43 1021.51 1021.55 1021.63 1021.71 1021.87 1021.99 1022.07 1022.15
1011.47 1011.71 1012.07 1012.35 1012.55 1012.71 1012.91 1013.03 1013.19 1013.31 1013.51 1013.67 1013.83 1013.99 1014.11 1014.27 1014.43 1014.55 1014.67 1014.83 1015.03 1015.23 1015.39 1015.47 1015.63 1015.79 1015.99 1016.11 1016.19 1016.27 1016.39 1016.51 1016.71 1016.83 1017.07 1017.27 1017.51 1017.71 1017.95 1018.19 1018.43 1018.71 1018.91 1019.11 1019.31 1019.55 1019.83 1019.99 1020.23 1020.39 1020.63 1020.83 1020.99 1021.11 1021.15 1021.19 1021.23 1021.27 1021.35 1021.43 1021.55 1021.59 1021.67 1021.71 1021.83 1021.99 1022.07 1022.15 1022.27
1011.27 1011.55 1011.83 1012.11 1012.35 1012.51 1012.67 1012.79 1012.99 1013.15 1013.39 1013.59 1013.75 1013.87 1014.07 1014.27 1014.39 1014.55 1014.71 1014.79 1014.99 1015.15 1015.31 1015.43 1015.59 1015.79 1015.95 1016.11 1016.27 1016.39 1016.47 1016.59 1016.71 1016.91 1017.11 1017.31 1017.55 1017.83 1017.99 1018.19 1018.43 1018.67 1018.91 1019.15 1019.39 1019.59 1019.83 1020.07 1020.27 1020.51 1020.71 1020.83 1020.99 1021.07 1021.15 1021.23 1021.27 1021.31 1021.35 1021.47 1021.59 1021.67 1021.75 1021.87 1021.99 1022.11 1022.19 1022.31 1022.43
1011.11 1011.31 1011.59 1011.87 1012.11 1012.27 1012.39 1012.59 1012.79 1013.03 1013.27 1013.47 1013.67 1013.87 1014.07 1014.27 1014.39 1014.55 1014.71 1014.83 1014.99 1015.11 1015.27 1015.39 1015.55 1015.67 1015.91 1016.11 1016.31 1016.51 1016.67 1016.83 1016.95 1017.11 1017.27 1017.51 1017.75 1017.95 1018.11 1018.27 1018.55 1018.79 1019.03 1019.23 1019.47 1019.67 1019.87 1020.07 1020.27 1020.47 1020.67 1020.83 1020.95 1021.07 1021.11 1021.23 1021.27 1021.31 1021.43 1021.55 1021.67 1021.79 1021.91 1022.03 1022.15 1022.27 1022.39 1022.47 1022.59
1010.95 1011.15 1011.39 1011.67 1011.91 1012.11 1012.27 1012.43 1012.63 1012.83 1013.11 1013.31 1013.55 1013.79 1013.95 1014.11 1014.31 1014.55 1014.71 1014.79 1014.95 1015.11 1015.27 1015.39 1015.55 1015.67 1015.91 1016.11 1016.39 1016.67 1016.87 1017.07 1017.19 1017.35 1017.51 1017.67 1017.91 1018.07 1018.23 1018.39 1018.63 1018.83 1019.11 1019.27 1019.51 1019.71 1019.87 1019.99 1020.19 1020.39 1020.59 1020.79 1020.95 1021.03 1021.11 1021.15 1021.27 1021.35 1021.51 1021.67 1021.83 1021.99 1022.07 1022.11 1022.27 1022.39 1022.47 1022.55 1022.71
1010.79 1011.03 1011.31 1011.55 1011.79 1011.99 1012.15 1012.31 1012.51 1012.71 1012.99 1013.19 1013.43 1013.63 1013.83 1013.99 1014.19 1014.39 1014.59 1014.71 1014.95 1015.15 1015.35 1015.43 1015.55 1015.71 1015.95 1016.15 1016.47 1016.75 1016.99 1017.23 1017.39 1017.55 1017.63 1017.83 1018.03 1018.19 1018.35 1018.55 1018.71 1018.87 1019.07 1019.27 1019.47 1019.67 1019.83 1019.99 1020.15 1020.39 1020.67 1020.83 1020.99 1021.07 1021.11 1021.23 1021.27 1021.39 1021.55 1021.75 1021.95 1022.11 1022.23 1022.31 1022.43 1022.51 1022.55 1022.63 1022.71
1010.63 1010.91 1011.15 1011.39 1011.67 1011.83 1012.03 1012.19 1012.39 1012.59 1012.87 1013.11 1013.27 1013.51 1013.67 1013.83 1014.07 1014.27 1014.51 1014.71 1014.95 1015.11 1015.27 1015.39 1015.55 1015.67 1015.91 1016.15 1016.47 1016.75 1016.99 1017.23 1017.43 1017.59 1017.79 1017.99 1018.15 1018.31 1018.43 1018.55 1018.71 1018.91 1019.07 1019.27 1019.39 1019.59 1019.79 1019.95 1020.15 1020.39 1020.67 1020.83 1020.99 1021.11 1021.19 1021.27 1021.39 1021.51 1021.63 1021.83 1022.03 1022.27 1022.39 1022.47 1022.55 1022.59 1022.63 1022.71 1022.79
1010.55 1010.83 1011.07 1011.31 1011.55 1011.71 1011.87 1012.07 1012.27 1012.47 1012.75 1012.99 1013.15 1013.39 1013.55 1013.75 1013.95 1014.15 1014.39 1014.67 1014.87 1015.07 1015.23 1015.35 1015.51 1015.67 1015.87 1016.15 1016.43 1016.71 1016.99 1017.19 1017.43 1017.67 1017.91 1018.11 1018.27 1018.39 1018.51 1018.63 1018.75 1018.91 1019.11 1019.27 1019.39 1019.55 1019.75 1019.95 1020.23 1020.43 1020.67 1020.87 1021.03 1021.15 1021.27 1021.39 1021.51 1021.63 1021.79 1021.95 1022.15 1022.31 1022.43 1022.55 1022.63 1022.67 1022.71 1022.79 1022.83
1010.39 1010.71 1010.99 1011.27 1011.47 1011.63 1011.79 1011.99 1012.15 1012.39 1012.67 1012.91 1013.11 1013.31 1013.51 1013.67 1013.83 1014.03 1014.27 1014.55 1014.83 1015.03 1015.23 1015.31 1015.43 1015.63 1015.83 1016.19 1016.43 1016.71 1016.91 1017.11 1017.39 1017.67 1017.95 1018.15 1018.27 1018.39 1018.51 1018.59 1018.75 1018.91 1019.11 1019.23 1019.39 1019.59 1019.79 1019.95 1020.15 1020.39 1020.63 1020.83 1021.03 1021.19 1021.39 1021.51 1021.63 1021.75 1021.91 1022.11 1022.27 1022.39 1022.47 1022.55 1022.67 1022.71 1022.79 1022.83 1022.91
1010.23 1010.51 1010.79 1011.07 1011.31 1011.55 1011.75 1011.99 1012.15 1012.39 1012.63 1012.83 1013.07 1013.27 1013.43 1013.63 1013.79 1013.99 1014.19 1014.47 1014.79 1015.03 1015.23 1015.27 1015.39 1015.59 1015.87 1016.15 1016.39 1016.63 1016.87 1017.11 1017.39 1017.67 1017.99 1018.11 1018.27 1018.39 1018.51 1018.63 1018.75 1018.91 1019.07 1019.27 1019.43 1019.63 1019.79 1019.95 1020.11 1020.39 1020.63 1020.83 1021.07 1021.27 1021.43 1021.59 1021.71 1021.83 1021.99 1022.15 1022.31 1022.39 1022.51 1022.59 1022.71 1022.75 1022.83 1022.91 1023.03
1010.11 1010.39 1010.67 1010.95 1011.19 1011.47 1011.71 1011.95 1012.11 1012.35 1012.55 1012.79 1012.99 1013.11 1013.31 1013.55 1013.75 1013.99 1014.23 1014.43 1014.75 1015.03 1015.23 1015.31 1015.39 1015.59 1015.87 1016.11 1016.39 1016.55 1016.83 1017.11 1017.39 1017.67 1017.91 1018.11 1018.27 1018.43 1018.59 1018.71 1018.83 1018.99 1019.11 1019.27 1019.43 1019.63 1019.79 1019.99 1020.11 1020.39 1020.63 1020.83 1021.11 1021.31 1021.47 1021.63 1021.75 1021.91 1022.11 1022.27 1022.39 1022.47 1022.55 1022.63 1022.71 1022.79 1022.87 1023.03 1023.15
1009.99 1010.31 1010.59 1010.83 1011.11 1011.39 1011.63 1011.83 1012.03 1012.27 1012.47 1012.67 1012.83 1012.99 1013.23 1013.51 1013.75 1013.99 1014.27 1014.47 1014.75 1015.03 1015.23 1015.35 1015.43 1015.67 1015.91 1016.11 1016.27 1016.55 1016.79 1017.07 1017.31 1017.55 1017.83 1018.11 1018.31 1018.55 1018.71 1018.83 1018.95 1019.03 1019.15 1019.27 1019.39 1019.55 1019.75 1019.99 1020.15 1020.35 1020.55 1020.83 1021.07 1021.27 1021.51 1021.67 1021.79 1021.95 1022.11 1022.27 1022.39 1022.43 1022.55 1022.67 1022.71 1022.83 1022.99 1023.11 1023.23
1009.95 1010.23 1010.51 1010.75 1011.03 1011.27 1011.55 1011.75 1011.95 1012.15 1012.35 1012.55 1012.71 1012.95 1013.15 1013.43 1013.71 1014.03 1014.27 1014.55 1014.79 1015.07 1015.27 1015.39 1015.55 1015.71 1015.95 1016.07 1016.27 1016.51 1016.75 1016.99 1017.27 1017.51 1017.79 1018.03 1018.31 1018.55 1018.71 1018.83 1018.95 1019.03 1019.11 1019.23 1019.39 1019.55 1019.75 1019.99 1020.19 1020.39 1020.55 1020.79 1021.03 1021.27 1021.55 1021.67 1021.83 1021.99 1022.11 1022.23 1022.35 1022.43 1022.55 1022.71 1022.79 1022.91 1023.03 1023.15 1023.27
1009.91 1010.15 1010.39 1010.71 1010.95 1011.19 1011.39 1011.63 1011.83 1012.03 1012.23 1012.39 1012.59 1012.83 1013.11 1013.39 1013.71 1014.03 1014.31 1014.59 1014.87 1015.11 1015.27 1015.39 1015.59 1015.83 1015.99 1016.15 1016.35 1016.55 1016.79 1016.99 1017.27 1017.47 1017.75 1018.07 1018.35 1018.55 1018.67 1018.75 1018.83 1018.95 1019.03 1019.15 1019.39 1019.59 1019.83 1019.99 1020.23 1020.39 1020.59 1020.83 1021.07 1021.31 1021.55 1021.71 1021.87 1022.03 1022.15 1022.27 1022.35 1022.43 1022.59 1022.71 1022.83 1022.99 1023.11 1023.23 1023.35
1009.83 1010.11 1010.35 1010.59 1010.83 1011.07 1011.27 1011.47 1011.67 1011.87 1012.07 1012.27 1012.51 1012.79 1013.11 1013.39 1013.71 1014.03 1014.35 1014.63 1014.91 1015.11 1015.23 1015.35 1015.59 1015.87 1016.11 1016.31 1016.43 1016.63 1016.83 1017.03 1017.27 1017.47 1017.75 1018.03 1018.27 1018.43 1018.55 1018.67 1018.79 1018.87 1018.99 1019.19 1019.39 1019.67 1019.91 1020.11 1020.31 1020.51 1020.71 1020.91 1021.11 1021.39 1021.59 1021.75 1021.95 1022.11 1022.23 1022.35 1022.43 1022.55 1022.71 1022.83 1022.91 1022.99 1023.11 1023.23 1023.31
1009.75 1009.99 1010.27 1010.47 1010.75 1010.95 1011.11 1011.31 1011.51 1011.71 1011.95 1012.15 1012.39 1012.71 1012.99 1013.35 1013.67 1013.99 1014.31 1014.59 1014.83 1015.03 1015.19 1015.39 1015.59 1015.87 1016.15 1016.39 1016.55 1016.67 1016.83 1017.11 1017.27 1017.51 1017.71 1017.99 1018.23 1018.39 1018.51 1018.67 1018.83 1018.95 1019.11 1019.27 1019.43 1019.67 1019.99 1020.23 1020.43 1020.63 1020.83 1021.03 1021.27 1021.47 1021.67 1021.83 1021.99 1022.19 1022.35 1022.43 1022.59 1022.71 1022.79 1022.87 1022.95 1023.03 1023.15 1023.27 1023.35
1009.67 1009.91 1010.11 1010.31 1010.55 1010.79 1010.99 1011.15 1011.39 1011.59 1011.83 1012.11 1012.39 1012.67 1012.99 1013.27 1013.59 1013.95 1014.27 1014.51 1014.75 1014.95 1015.15 1015.39 1015.67 1015.91 1016.15 1016.39 1016.55 1016.71 1016.87 1017.11 1017.31 1017.51 1017.71 1017.99 1018.23 1018.39 1018.55 1018.79 1018.95 1019.07 1019.23 1019.35 1019.51 1019.71 1019.99 1020.27 1020.51 1020.71 1020.99 1021.19 1021.39 1021.59 1021.79 1021.95 1022.11 1022.27 1022.43 1022.55 1022.71 1022.83 1022.87 1022.95 1022.99 1023.11 1023.19 1023.31 1023.39
1009.55 1009.79 1009.99 1010.19 1010.39 1010.63 1010.83 1011.07 1011.31 1011.55 1011.83 1012.11 1012.39 1012.67 1012.99 1013.27 1013.55 1013.83 1014.15 1014.43 1014.71 1014.87 1015.11 1015.39 1015.67 1015.95 1016.15 1016.35 1016.55 1016.79 1016.99 1017.11 1017.31 1017.55 1017.83 1018.07 1018.27 1018.47 1018.67 1018.87 1019.03 1019.15 1019.31 1019.43 1019.59 1019.79 1020.03 1020.31 1020.55 1020.79 1021.07 1021.31 1021.55 1021.75 1021.95 1022.11 1022.27 1022.39 1022.55 1022.71 1022.83 1022.91 1022.99 1023.03 1023.11 1023.19 1023.27 1023.39 1023.47
1009.51 1009.67 1009.87 1010.03 1010.27 1010.47 1010.71 1010.99 1011.27 1011.55 1011.83 1012.15 1012.39 1012.71 1012.99 1013.23 1013.51 1013.75 1014.03 1014.35 1014.63 1014.83 1015.07 1015.31 1015.67 1015.99 1016.23 1016.39 1016.63 1016.83 1017.11 1017.27 1017.47 1017.67 1017.95 1018.19 1018.39 1018.59 1018.75 1018.95 1019.11 1019.27 1019.39 1019.55 1019.67 1019.87 1020.11 1020.39 1020.59 1020.87 1021.11 1021.39 1021.67 1021.83 1022.03 1022.19 1022.35 1022.51 1022.63 1022.79 1022.91 1022.99 1023.11 1023.15 1023.27 1023.35 1023.39 1023.51 1023.55
1009.51 1009.67 1009.83 1009.99 1010.15 1010.35 1010.59 1010.91 1011.19 1011.55 1011.83 1012.11 1012.39 1012.71 1012.99 1013.23 1013.43 1013.67 1013.91 1014.23 1014.55 1014.83 1015.07 1015.31 1015.59 1015.91 1016.19 1016.47 1016.71 1016.99 1017.27 1017.55 1017.71 1017.91 1018.11 1018.35 1018.51 1018.71 1018.83 1018.99 1019.19 1019.35 1019.51 1019.63 1019.79 1019.99 1020.23 1020.43 1020.71 1020.99 1021.23 1021.51 1021.71 1021.91 1022.07 1022.27 1022.39 1022.55 1022.71 1022.87 1022.99 1023.11 1023.27 1023.35 1023.43 1023.51 1023.55 1023.59 1023.67
1009.55 1009.71 1009.83 1009.99 1010.15 1010.31 1010.55 1010.83 1011.15 1011.51 1011.79 1012.11 1012.39 1012.67 1012.95 1013.19 1013.43 1013.67 1013.87 1014.19 1014.51 1014.83 1015.11 1015.35 1015.59 1015.83 1016.11 1016.39 1016.71 1017.07 1017.43 1017.75 1017.99 1018.15 1018.31 1018.51 1018.67 1018.83 1018.99 1019.11 1019.27 1019.39 1019.59 1019.75 1019.91 1020.11 1020.31 1020.55 1020.83 1021.11 1021.39 1021.59 1021.83 1021.99 1022.11 1022.31 1022.47 1022.67 1022.83 1022.99 1023.11 1023.27 1023.43 1023.55 1023.63 1023.67 1023.71 1023.75 1023.79
1009.55 1009.75 1009.95 1010.07 1010.19 1010.35 1010.55 1010.83 1011.11 1011.43 1011.71 1012.03 1012.39 1012.71 1012.99 1013.23 1013.47 1013.71 1013.99 1014.27 1014.59 1014.87 1015.15 1015.39 1015.67 1015.87 1016.11 1016.43 1016.71 1017.11 1017.47 1017.83 1018.15 1018.39 1018.55 1018.63 1018.79 1018.95 1019.11 1019.23 1019.31 1019.47 1019.67 1019.83 1020.03 1020.23 1020.43 1020.71 1021.03 1021.31 1021.55 1021.71 1021.87 1022.03 1022.23 1022.39 1022.55 1022.71 1022.95 1023.11 1023.27 1023.47 1023.67 1023.75 1023.83 1023.83 1023.91 1023.91 1023.91
1009.55 1009.83 1009.99 1010.11 1010.23 1010.39 1010.55 1010.83 1011.11 1011.39 1011.67 1011.99 1012.39 1012.71 1012.99 1013.27 1013.55 1013.83 1014.11 1014.39 1014.63 1014.91 1015.19 1015.51 1015.79 1016.03 1016.31 1016.59 1016.87 1017.15 1017.47 1017.79 1018.11 1018.43 1018.63 1018.75 1018.87 1018.99 1019.15 1019.27 1019.43 1019.59 1019.71 1019.91 1020.11 1020.27 1020.55 1020.87 1021.23 1021.51 1021.71 1021.83 1021.91 1022.11 1022.27 1022.43 1022.63 1022.83 1023.03 1023.19 1023.39 1023.55 1023.75 1023.83 1023.91 1023.95 1023.95 1023.91 1023.87
1009.59 1009.83 1009.99 1010.11 1010.27 1010.39 1010.55 1010.83 1011.11 1011.39 1011.71 1012.03 1012.39 1012.71 1012.99 1013.27 1013.59 1013.87 1014.15 1014.43 1014.71 1014.99 1015.27 1015.59 1015.91 1016.23 1016.55 1016.79 1017.07 1017.27 1017.51 1017.71 1018.03 1018.35 1018.59 1018.79 1018.91 1019.03 1019.15 1019.31 1019.51 1019.67 1019.83 1020.03 1020.23 1020.39 1020.55 1020.83 1021.15 1021.47 1021.67 1021.79 1021.87 1022.07 1022.31 1022.47 1022.67 1022.87 1023.03 1023.19 1023.39 1023.55 1023.71 1023.83 1023.83 1023.87 1023.87 1023.83 1023.75
1009.63 1009.83 1010.03 1010.11 1010.27 1010.43 1010.59 1010.83 1011.11 1011.43 1011.79 1012.11 1012.39 1012.71 1013.07 1013.39 1013.67 1013.99 1014.23 1014.55 1014.83 1015.11 1015.39 1015.67 1016.03 1016.39 1016.67 1016.91 1017.15 1017.39 1017.63 1017.83 1018.03 1018.27 1018.43 1018.67 1018.87 1019.03 1019.15 1019.31 1019.51 1019.71 1019.95 1020.11 1020.27 1020.47 1020.63 1020.83 1021.11 1021.39 1021.55 1021.67 1021.83 1022.03 1022.27 1022.51 1022.71 1022.87 1023.03 1023.23 1023.39 1023.51 1023.63 1023.67 1023.75 1023.75 1023.79 1023.83 1023.83
1009.67 1009.87 1010.07 1010.19 1010.35 1010.51 1010.71 1010.95 1011.23 1011.55 1011.83 1012.11 1012.43 1012.75 1013.07 1013.39 1013.75 1014.03 1014.35 1014.67 1014.99 1015.27 1015.55 1015.83 1016.15 1016.47 1016.75 1016.99 1017.23 1017.43 1017.67 1017.91 1018.11 1018.27 1018.39 1018.55 1018.75 1018.99 1019.11 1019.31 1019.55 1019.83 1020.03 1020.15 1020.35 1020.51 1020.71 1020.87 1021.11 1021.31 1021.47 1021.59 1021.75 1021.91 1022.11 1022.39 1022.71 1022.91 1023.07 1023.27 1023.35 1023.47 1023.55 1023.59 1023.63 1023.67 1023.71 1023.83 1023.91
1009.67 1009.91 1010.11 1010.27 1010.39 1010.59 1010.83 1011.03 1011.31 1011.59 1011.87 1012.11 1012.43 1012.75 1013.11 1013.39 1013.79 1014.11 1014.47 1014.75 1015.07 1015.35 1015.67 1015.99 1016.31 1016.59 1016.87 1017.11 1017.27 1017.51 1017.71 1017.95 1018.15 1018.31 1018.47 1018.55 1018.75 1018.91 1019.11 1019.35 1019.59 1019.83 1020.03 1020.19 1020.39 1020.55 1020.71 1020.87 1021.11 1021.27 1021.43 1021.55 1021.71 1021.95 1022.15 1022.35 1022.63 1022.83 1023.03 1023.23 1023.31 1023.43 1023.55 1023.55 1023.63 1023.67 1023.71 1023.83 1023.95
1009.67 1009.91 1010.11 1010.31 1010.51 1010.71 1010.91 1011.11 1011.39 1011.63 1011.87 1012.15 1012.43 1012.79 1013.11 1013.43 1013.83 1014.15 1014.51 1014.83 1015.11 1015.39 1015.67 1016.03 1016.39 1016.67 1016.91 1017.11 1017.35 1017.55 1017.83 1017.99 1018.19 1018.31 1018.47 1018.63 1018.83 1018.99 1019.15 1019.35 1019.63 1019.83 1020.07 1020.23 1020.39 1020.55 1020.71 1020.91 1021.11 1021.31 1021.47 1021.59 1021.75 1021.95 1022.15 1022.35 1022.59 1022.83 1022.99 1023.11 1023.27 1023.39 1023.51 1023.55 1023.67 1023.67 1023.75 1023.83 1023.91
1009.67 1009.91 1010.11 1010.31 1010.51 1010.71 1010.99 1011.15 1011.39 1011.67 1011.95 1012.27 1012.55 1012.83 1013.11 1013.43 1013.83 1014.19 1014.55 1014.83 1015.11 1015.35 1015.63 1015.95 1016.27 1016.59 1016.87 1017.07 1017.35 1017.63 1017.87 1018.03 1018.23 1018.39 1018.51 1018.63 1018.83 1018.99 1019.19 1019.39 1019.63 1019.87 1020.07 1020.23 1020.39 1020.55 1020.71 1020.91 1021.11 1021.35 1021.51 1021.67 1021.79 1021.99 1022.19 1022.39 1022.59 1022.83 1022.99 1023.11 1023.27 1023.39 1023.51 1023.59 1023.67 1023.71 1023.79 1023.83 1023.91
1009.55 1009.83 1010.07 1010.27 1010.55 1010.79 1010.99 1011.23 1011.47 1011.75 1012.03 1012.31 1012.59 1012.83 1013.11 1013.39 1013.79 1014.15 1014.51 1014.75 1015.03 1015.27 1015.59 1015.87 1016.15 1016.47 1016.75 1017.07 1017.35 1017.63 1017.83 1018.07 1018.27 1018.39 1018.55 1018.63 1018.79 1018.99 1019.23 1019.43 1019.67 1019.91 1020.11 1020.27 1020.39 1020.55 1020.71 1020.95 1021.15 1021.39 1021.55 1021.71 1021.83 1021.99 1022.19 1022.39 1022.59 1022.83 1022.99 1023.15 1023.31 1023.43 1023.55 1023.67 1023.67 1023.71 1023.79 1023.87 1023.95
1009.47 1009.75 1009.99 1010.27 1010.55 1010.79 1010.99 1011.27 1011.55 1011.83 1012.07 1012.35 1012.59 1012.83 1013.07 1013.39 1013.75 1014.11 1014.43 1014.75 1015.03 1015.31 1015.59 1015.87 1016.15 1016.43 1016.75 1017.07 1017.39 1017.59 1017.83 1018.03 1018.27 1018.39 1018.51 1018.63 1018.79 1018.99 1019.19 1019.39 1019.67 1019.91 1020.11 1020.27 1020.39 1020.55 1020.71 1020.99 1021.19 1021.39 1021.59 1021.75 1021.87 1022.03 1022.23 1022.43 1022.63 1022.83 1023.07 1023.23 1023.39 1023.55 1023.63 1023.67 1023.75 1023.79 1023.83 1023.91 1023.99
1009.39 1009.67 1009.95 1010.23 1010.47 1010.79 1011.07 1011.35 1011.59 1011.87 1012.15 1012.39 1012.63 1012.83 1013.07 1013.39 1013.79 1014.11 1014.47 1014.79 1015.07 1015.31 1015.55 1015.83 1016.11 1016.39 1016.71 1016.99 1017.31 1017.55 1017.83 1018.03 1018.23 1018.39 1018.51 1018.67 1018.79 1018.99 1019.19 1019.39 1019.67 1019.91 1020.11 1020.23 1020.39 1020.55 1020.75 1020.99 1021.23 1021.47 1021.67 1021.83 1021.99 1022.11 1022.31 1022.51 1022.71 1022.99 1023.15 1023.31 1023.47 1023.63 1023.67 1023.75 1023.83 1023.87 1023.91 1023.99 1023.99
1009.35 1009.63 1009.91 1010.19 1010.47 1010.79 1011.11 1011.39 1011.67 1011.91 1012.19 1012.47 1012.71 1012.87 1013.11 1013.39 1013.79 1014.15 1014.51 1014.83 1015.07 1015.27 1015.51 1015.79 1016.03 1016.27 1016.55 1016.83 1017.11 1017.43 1017.71 1017.99 1018.19 1018.39 1018.55 1018.67 1018.79 1018.95 1019.11 1019.35 1019.63 1019.91 1020.11 1020.19 1020.35 1020.55 1020.79 1021.03 1021.27 1021.51 1021.71 1021.91 1022.07 1022.23 1022.39 1022.59 1022.83 1023.03 1023.27 1023.43 1023.59 1023.71 1023.79 1023.87 1023.95 1023.99 1024.03 1024.07 1024.11
1009.35 1009.59 1009.87 1010.19 1010.51 1010.83 1011.11 1011.43 1011.71 1011.99 1012.27 1012.55 1012.79 1012.99 1013.23 1013.43 1013.79 1014.11 1014.43 1014.79 1015.11 1015.39 1015.63 1015.87 1016.15 1016.39 1016.63 1016.95 1017.15 1017.35 1017.59 1017.87 1018.11 1018.35 1018.55 1018.63 1018.79 1018.95 1019.11 1019.31 1019.59 1019.83 1020.07 1020.19 1020.35 1020.55 1020.79 1020.99 1021.27 1021.55 1021.75 1021.99 1022.15 1022.35 1022.51 1022.71 1022.95 1023.15 1023.39 1023.55 1023.75 1023.87 1023.99 1024.07 1024.11 1024.19 1024.19 1024.23 1024.19
1009.31 1009.55 1009.83 1010.15 1010.51 1010.83 1011.11 1011.39 1011.71 1011.99 1012.27 1012.55 1012.83 1013.11 1013.31 1013.55 1013.83 1014.15 1014.47 1014.83 1015.11 1015.43 1015.71 1015.99 1016.27 1016.51 1016.75 1016.99 1017.27 1017.39 1017.59 1017.83 1018.03 1018.27 1018.47 1018.59 1018.71 1018.91 1019.11 1019.31 1019.59 1019.83 1020.07 1020.23 1020.39 1020.55 1020.79 1021.03 1021.31 1021.55 1021.83 1022.03 1022.23 1022.39 1022.59 1022.83 1023.03 1023.27 1023.43 1023.67 1023.83 1023.95 1024.07 1024.19 1024.27 1024.39 1024.47 1024.43 1024.35
1009.31 1009.55 1009.83 1010.11 1010.47 1010.79 1011.11 1011.39 1011.67 1011.99 1012.27 1012.55 1012.83 1013.11 1013.35 1013.67 1013.99 1014.27 1014.59 1014.87 1015.11 1015.39 1015.71 1015.99 1016.27 1016.47 1016.71 1016.91 1017.15 1017.39 1017.59 1017.79 1017.99 1018.19 1018.39 1018.55 1018.71 1018.83 1019.03 1019.27 1019.55 1019.83 1020.07 1020.19 1020.35 1020.55 1020.79 1021.03 1021.35 1021.59 1021.83 1021.99 1022.19 1022.39 1022.63 1022.83 1023.07 1023.27 1023.51 1023.67 1023.83 1023.99 1024.11 1024.27 1024.39 1024.55 1024.67 1024.71 1024.59
1009.35 1009.59 1009.83 1010.15 1010.43 1010.75 1011.07 1011.35 1011.63 1011.91 1012.19 1012.51 1012.83 1013.11 1013.35 1013.67 1013.99 1014.35 1014.67 1014.87 1015.11 1015.39 1015.67 1015.99 1016.19 1016.39 1016.59 1016.83 1017.07 1017.39 1017.67 1017.87 1017.99 1018.15 1018.35 1018.55 1018.67 1018.83 1018.99 1019.27 1019.55 1019.83 1020.03 1020.15 1020.35 1020.55 1020.79 1021.07 1021.39 1021.63 1021.83 1021.99 1022.15 1022.39 1022.59 1022.83 1023.03 1023.27 1023.47 1023.67 1023.83 1023.99 1024.15 1024.27 1024.39 1024.55 1024.71 1024.83 1024.71
1009.39 1009.63 1009.91 1010.19 1010.47 1010.75 1011.03 1011.31 1011.55 1011.83 1012.11 1012.43 1012.79 1013.11 1013.39 1013.67 1013.99 1014.31 1014.63 1014.83 1015.07 1015.31 1015.59 1015.87 1016.11 1016.39 1016.59 1016.83 1017.11 1017.47 1017.75 1017.99 1018.11 1018.23 1018.35 1018.51 1018.67 1018.83 1018.99 1019.23 1019.51 1019.75 1019.99 1020.15 1020.35 1020.55 1020.83 1021.11 1021.39 1021.67 1021.83 1021.99 1022.15 1022.35 1022.55 1022.79 1022.99 1023.19 1023.39 1023.63 1023.79 1023.99 1024.15 1024.27 1024.39 1024.47 1024.59 1024.71 1024.75
1009.43 1009.67 1009.99 1010.23 1010.51 1010.79 1011.03 1011.27 1011.55 1011.83 1012.11 1012.43 1012.79 1013.11 1013.39 1013.67 1013.99 1014.31 1014.63 1014.87 1015.11 1015.39 1015.63 1015.87 1016.11 1016.39 1016.63 1016.87 1017.19 1017.51 1017.79 1018.07 1018.27 1018.35 1018.43 1018.55 1018.71 1018.87 1019.03 1019.23 1019.43 1019.67 1019.95 1020.15 1020.39 1020.59 1020.83 1021.15 1021.43 1021.67 1021.83 1021.99 1022.15 1022.31 1022.55 1022.71 1022.95 1023.11 1023.31 1023.55 1023.71 1023.95 1024.11 1024.23 1024.31 1024.39 1024.51 1024.63 1024.71
1009.47 1009.75 1010.03 1010.27 1010.55 1010.79 1011.07 1011.31 1011.55 1011.83 1012.15 1012.43 1012.75 1013.03 1013.39 1013.67 1014.03 1014.35 1014.63 1014.91 1015.23 1015.51 1015.79 1016.03 1016.27 1016.43 1016.67 1016.95 1017.23 1017.47 1017.79 1018.07 1018.27 1018.43 1018.55 1018.63 1018.79 1018.99 1019.11 1019.27 1019.43 1019.67 1019.95 1020.15 1020.39 1020.59 1020.87 1021.15 1021.43 1021.67 1021.83 1021.99 1022.11 1022.31 1022.47 1022.63 1022.83 1023.03 1023.23 1023.43 1023.59 1023.79 1023.95 1024.11 1024.23 1024.31 1024.39 1024.47 1024.55
Wind_Speed
13 11 10 9 8 8 8 7 7 7 6 7 7 7 6 6 6 5 5 5 5 5 5 5 5 5 6 8 10 10 9 9 9 9 9 10 9 9 8 6 6 7 8 8 8 8 7 7 6 5 4 4 4 4 3 3 4 4 5 5 4 5 5 6 6 6 5 5 4
15 13 11 10 9 8 7 7 7 7 6 6 6 7 7 6 6 5 5 6 5 4 4 4 5 6 7 8 9 9 9 9 10 10 10 10 11 10 10 9 8 8 9 9 9 8 7 7 6 5 5 4 4 4 3 3 4 5 6 6 5 4 5 5 5 5 5 4 4
15 14 12 11 10 9 8 8 8 8 8 7 7 6 6 5 5 5 5 5 5 5 4 4 5 6 7 8 7 7 8 8 9 9 9 9 10 10 10 10 10 10 10 9 9 8 7 7 6 5 5 5 4 4 4 4 5 5 5 5 4 4 4 4 4 4 4 3 4
15 14 13 12 13 12 11 9 9 10 9 7 7 7 6 5 5 4 4 5 6 5 5 5 5 6 7 7 7 7 7 7 9 9 9 9 10 10 10 10 10 10 10 9 9 9 9 8 6 5 5 6 5 5 4 4 5 5 4 4 4 3 3 3 3 3 3 3 4
16 14 13 13 14 14 12 10 11 10 9 8 7 6 6 5 5 4 4 4 5 5 5 6 6 6 7 8 8 8 8 8 8 8 9 9 10 10 10 11 11 10 10 10 10 10 10 9 6 5 5 6 5 4 5 5 5 5 4 4 3 3 3 3 3 3 3 3 3
15 15 14 13 14 13 12 11 12 11 10 8 8 8 7 6 6 5 5 5 5 6 7 7 6 7 8 9 9 9 8 7 7 7 9 10 10 10 11 11 11 11 10 10 11 11 10 8 6 5 5 5 4 5 5 6 5 5 4 4 4 3 3 4 3 3 3 4 4
15 15 14 14 14 13 12 11 11 11 10 9 10 10 10 8 8 8 7 6 6 7 7 6 7 8 8 9 9 9 8 7 7 8 9 9 9 10 11 11 11 11 11 11 11 10 9 8 6 5 5 5 4 5 5 5 5 5 5 5 4 3 3 4 3 3 4 6 6
15 15 15 14 14 14 14 13 12 11 10 8 10 11 12 11 10 10 9 8 7 7 7 6 8 9 10 10 10 9 9 9 8 8 9 9 10 10 11 11 12 11 11 11 11 10 9 7 6 5 5 5 4 4 5 6 5 6 6 5 4 4 3 4 3 4 5 6 6
14 15 15 14 14 14 14 14 13 12 11 10 11 12 12 12 12 11 10 8 8 8 8 8 10 11 11 11 10 10 9 9 9 9 9 9 10 11 11 11 11 11 11 10 10 10 9 7 6 6 5 5 5 5 6 6 6 6 6 5 5 4 4 4 5 5 5 6 6
15 15 15 14 14 14 14 13 13 12 12 11 12 12 12 11 11 11 10 8 8 8 9 9 11 11 12 12 11 10 10 10 10 10 10 10 10 11 11 10 11 11 10 10 10 9 9 7 7 7 6 6 6 7 7 7 7 7 6 5 5 6 6 6 6 6 6 6 6
16 16 15 14 15 14 14 13 12 12 12 12 12 13 12 11 11 10 9 9 10 10 10 10 11 12 12 11 11 11 10 10 10 10 10 10 10 10 11 11 11 11 11 10 9 8 7 6 8 8 8 8 8 8 8 8 8 7 7 6 6 7 7 7 7 6 6 7 7
16 16 15 14 15 15 14 13 12 11 11 12 13 13 12 11 11 11 10 11 11 11 11 11 12 12 11 10 11 11 11 11 11 11 11 10 10 10 11 11 11 11 11 10 9 7 7 7 9 10 10 9 8 7 8 8 8 8 8 8 7 7 7 7 7 6 6 7 7
16 16 15 15 15 15 14 13 11 11 12 13 13 12 11 11 11 11 11 12 11 10 10 10 11 11 11 10 11 11 11 12 12 11 11 10 10 10 11 11 11 11 11 10 9 8 8 8 10 11 11 10 8 8 8 9 9 8 9 9 8 8 8 8 7 7 7 7 7
16 16 16 15 16 15 14 13 11 11 12 13 13 12 11 10 11 11 11 11 11 10 10 10 10 10 10 11 11 12 12 12 12 12 12 11 11 11 11 11 12 11 11 9 9 9 9 9 10 11 11 11 10 9 9 9 8 8 9 9 9 9 8 8 8 8 8 8 7
16 16 16 16 16 15 14 14 11 11 12 13 12 11 10 10 10 10 10 11 11 10 10 10 9 9 10 11 12 13 13 12 13 13 12 12 12 11 11 11 12 11 10 10 9 9 10 10 10 11 11 11 10 10 9 9 8 8 8 8 9 9 9 8 8 8 8 8 7
16 16 16 16 16 15 14 13 11 11 12 12 12 12 11 10 10 10 10 11 10 9 9 10 10 9 9 10 12 12 13 13 13 13 13 13 12 12 12 12 11 11 11 10 10 10 10 10 10 10 10 11 10 10 9 9 8 8 8 8 8 8 8 8 8 8 8 8 7
17 17 17 16 16 16 15 13 11 11 12 12 13 12 11 10 10 10 10 11 10 10 10 11 10 10 10 10 11 11 12 12 12 13 13 13 13 12 12 11 11 11 11 11 11 11 10 10 9 10 10 10 10 9 9 8 8 8 8 8 8 8 8 8 8 8 8 8 7
17 17 17 17 17 16 16 14 13 12 13 13 13 12 12 11 11 11 11 11 11 12 12 12 11 11 11 11 10 10 10 11 12 12 12 12 12 12 11 11 11 10 11 11 11 12 11 11 10 10 10 10 9 9 8 8 8 8 8 8 8 8 8 8 8 8 7 8 7
17 17 17 17 17 17 16 15 14 14 14 14 13 13 12 13 13 12 12 12 12 13 14 13 12 12 11 12 11 10 9 10 11 12 12 12 11 11 11 11 11 11 11 11 11 12 12 11 11 11 10 9 9 8 8 8 8 8 8 8 8 8 8 7 7 7 7 7 7
16 17 17 17 17 17 16 15 15 14 14 13 14 14 14 14 14 14 14 13 13 14 14 14 13 12 12 12 12 10 9 8 10 11 11 11 11 11 11 11 11 11 11 11 11 11 11 11 11 11 10 10 10 9 9 9 8 9 9 8 8 8 7 7 6 6 6 7 7
16 16 16 17 17 17 16 15 15 15 15 14 15 15 15 15 15 15 15 15 14 14 14 14 14 14 13 13 12 11 10 7 8 9 10 10 10 10 11 11 11 11 11 10 11 11 11 11 11 11 11 10 10 10 9 9 9 9 9 8 8 7 7 6 6 6 6 6 6
15 15 16 16 16 16 16 16 15 15 15 15 15 15 15 15 15 15 15 15 15 14 14 14 15 15 14 14 13 12 11 8 8 8 9 9 10 10 10 10 11 11 11 11 11 11 11 11 11 10 9 9 10 10 10 9 9 9 9 8 8 7 6 6 5 5 5 5 5
14 14 15 15 16 16 16 16 16 16 16 15 15 15 15 15 15 15 15 14 14 14 13 13 13 13 14 14 14 13 12 11 9 9 9 9 9 9 9 9 10 11 11 10 10 10 11 10 10 9 8 8 10 10 10 10 9 9 9 9 8 7 6 5 5 4 4 4 4
14 14 14 13 15 16 16 16 16 16 16 16 16 15 15 15 14 14 14 14 14 13 13 11 11 12 13 13 13 14 14 13 12 10 10 9 10 10 10 9 9 9 9 9 10 10 10 9 8 8 7 7 9 10 10 10 9 9 9 9 9 8 7 6 5 5 5 5 6
14 14 14 13 15 16 16 16 16 16 16 15 16 15 15 15 14 14 14 14 14 13 13 12 12 11 11 12 12 13 13 14 13 12 11 11 10 10 9 8 8 7 7 8 12 13 13 12 11 9 8 8 9 10 9 10 10 10 10 10 10 9 8 8 7 7 6 6 5
14 14 14 14 15 16 16 16 16 16 16 15 15 15 15 15 14 14 14 14 13 13 13 13 12 11 11 11 11 12 11 11 12 12 12 12 11 10 9 8 7 6 7 9 14 16 16 16 14 12 10 8 9 9 9 9 10 10 10 10 10 9 9 9 8 8 7 5 4
14 14 14 14 15 15 15 15 15 15 15 16 16 16 16 15 14 14 14 14 13 13 13 12 11 11 10 10 11 12 11 10 10 11 12 12 12 11 10 8 7 6 7 12 16 17 17 17 17 15 12 9 9 9 9 9 10 10 10 10 9 9 9 9 9 8 7 6 5
14 14 14 14 14 15 15 15 15 15 16 16 16 16 16 15 15 15 14 14 14 13 12 11 10 9 8 8 10 11 11 10 10 10 11 11 12 11 10 8 7 7 10 15 17 18 18 18 18 16 14 11 9 9 9 10 10 10 9 9 9 9 9 8 8 7 7 6 5
14 14 14 14 14 15 15 15 15 16 16 16 16 16 16 16 16 15 15 14 14 13 11 10 9 8 7 8 10 10 11 10 10 9 10 11 11 10 9 8 8 10 13 18 19 19 19 18 18 16 14 12 9 8 8 8 8 8 8 8 8 8 8 7 7 6 6 6 5
15 15 15 15 15 14 15 15 16 16 16 15 16 16 16 16 16 15 15 15 14 13 11 10 10 9 9 10 10 10 10 9 9 9 10 11 11 10 9 9 9 11 14 19 19 19 19 19 18 17 15 13 10 8 8 8 8 7 7 7 7 8 8 7 7 7 6 6 6
16 15 15 15 15 15 15 15 16 16 15 14 16 16 16 16 16 16 15 15 14 13 12 12 12 12 12 11 11 10 10 9 9 9 10 11 11 11 10 10 11 12 15 19 19 19 19 19 18 17 15 14 10 8 8 8 8 7 7 7 8 8 8 7 7 7 7 6 6
16 16 16 15 15 15 15 15 16 16 16 16 16 16 16 16 16 15 14 14 13 13 13 13 13 13 13 12 11 11 11 10 10 10 10 11 11 11 11 11 11 13 15 19 19 19 19 19 18 17 15 14 10 9 8 8 8 7 7 7 8 8 8 6 6 7 7 7 6
16 16 16 16 16 15 15 15 16 16 16 16 16 16 16 16 15 14 13 13 13 13 14 14 14 14 14 13 12 12 12 11 11 11 11 11 11 12 12 11 11 13 16 19 19 19 19 19 18 17 16 14 10 9 8 8 7 7 7 7 8 8 7 7 6 6 6 6 5
16 16 16 16 16 15 15 15 15 15 15 15 15 15 15 15 15 14 13 12 12 12 13 13 13 13 13 13 13 13 12 11 11 11 11 11 12 12 12 10 9 12 17 20 19 19 19 19 18 17 16 13 10 8 8 8 7 6 7 7 7 6 6 6 6 6 5 5 5
16 16 16 16 16 15 15 15 15 15 15 15 14 14 14 15 15 14 13 12 12 11 11 11 11 11 12 12 12 13 13 12 12 12 12 12 12 12 12 11 11 14 18 20 20 19 19 19 19 17 15 12 9 8 8 8 7 7 7 7 6 6 5 5 5 4 4 4 4
16 17 17 16 16 16 16 16 15 15 15 15 14 14 14 14 14 13 13 13 12 12 11 11 11 11 11 12 11 12 12 13 13 13 13 13 13 13 12 12 13 16 19 20 20 20 20 19 19 17 15 11 8 7 7 7 7 7 8 8 7 6 6 5 4 3 2 2 3
16 17 17 17 16 16 16 16 16 16 15 15 15 14 14 14 13 12 12 12 12 12 12 12 12 12 12 13 12 11 12 13 13 14 13 13 13 13 13 13 14 16 19 20 20 20 20 20 19 17 14 10 8 7 7 7 6 7 8 8 7 7 6 5 5 4 2 1 2
16 16 17 17 16 16 16 16 16 16 16 15 15 14 14 13 13 12 12 12 12 13 13 12 12 13 13 13 12 12 12 12 13 14 14 13 13 13 13 14 14 16 17 19 20 20 20 20 19 17 14 9 9 8 7 7 7 7 7 7 7 7 6 5 5 4 4 3 3
16 16 16 16 16 17 17 16 16 16 16 16 15 14 13 12 12 11 11 11 12 13 13 13 13 13 13 13 12 12 12 12 12 13 13 13 13 13 13 14 14 15 16 19 20 20 20 20 19 17 14 10 9 8 7 7 7 8 8 7 7 7 6 5 5 4 4 5 5
15 16 16 16 16 16 16 17 16 16 15 15 15 14 13 12 12 11 11 11 11 11 12 12 13 13 13 13 12 13 13 12 12 12 12 12 12 13 13 14 14 15 17 19 20 20 20 20 19 17 14 10 9 8 7 7 8 8 8 7 7 6 6 6 5 5 5 6 6
15 15 16 16 16 16 16 16 16 15 14 14 15 14 13 12 12 12 11 10 11 10 10 10 12 13 13 12 12 12 13 13 12 11 11 12 12 12 13 13 14 15 16 18 19 20 20 20 19 17 14 10 9 8 7 7 8 8 9 8 7 7 6 6 6 5 5 6 6
Wind_Direction
197 194 190 188 189 190 193 194 193 190 188 187 189 189 188 190 186 180 175 177 181 179 177 178 176 173 170 166 168 170 173 173 166 158 150 145 140 136 133 133 133 134 134 132 129 125 119 115 112 108 103 99 99 99 103 116 116 111 105 104 106 106 106 105 106 107 108 107 107
197 193 189 186 186 188 190 192 190 188 186 187 188 189 188 187 184 180 177 176 175 172 168 166 162 160 161 163 165 167 167 165 160 155 150 148 145 143 142 141 140 137 134 131 129 126 121 120 116 111 107 103 103 107 114 120 114 110 108 108 108 108 108 107 109 112 112 111 111
196 192 188 186 187 188 188 190 189 187 186 186 187 187 185 182 181 179 176 170 163 160 159 158 155 155 156 158 160 160 158 156 154 150 147 143 142 142 143 142 140 138 134 130 129 126 123 120 114 110 108 109 115 117 118 116 115 115 114 113 112 111 112 109 112 112 112 108 106
195 193 189 188 189 189 189 188 187 185 185 184 186 184 180 176 175 170 162 159 157 158 158 156 153 153 154 153 148 142 139 142 144 142 138 134 137 139 140 138 136 134 131 127 125 123 121 118 112 110 113 119 122 124 126 129 128 123 117 113 111 110 109 107 108 107 104 101 99
195 193 191 190 190 190 189 188 186 184 183 182 181 177 173 174 170 161 154 162 160 157 154 152 150 149 148 144 137 131 128 129 132 131 131 132 136 139 138 135 132 129 126 124 123 123 121 119 116 117 121 126 127 131 134 137 131 123 115 109 108 107 108 109 109 108 106 106 105
194 192 191 190 190 190 190 189 186 183 181 179 178 176 175 174 168 164 163 166 154 147 143 144 143 142 140 138 132 128 126 126 125 127 130 133 137 137 135 132 130 128 126 126 125 124 124 122 119 119 122 123 127 132 136 137 129 122 116 110 106 106 108 112 111 113 115 119 118
192 191 190 189 189 189 189 188 185 182 179 178 179 178 176 174 169 167 165 160 148 143 141 143 143 142 140 137 133 131 131 132 130 131 133 135 136 136 135 133 131 130 129 129 128 127 127 125 121 120 121 121 125 132 135 133 129 123 118 112 109 108 110 110 112 118 124 127 126
191 190 189 187 187 188 187 186 182 179 177 176 179 179 176 173 169 166 163 156 149 147 146 147 146 144 141 138 136 136 136 137 135 134 134 135 137 137 135 132 130 130 130 131 131 131 130 126 123 124 125 125 127 132 133 129 126 121 117 114 113 112 114 116 121 126 129 130 129
188 188 187 186 186 186 186 184 180 176 174 174 177 177 175 172 169 166 162 156 151 149 148 148 147 144 141 137 137 138 138 138 137 137 138 139 139 138 135 132 131 131 131 132 132 133 132 128 128 128 129 130 132 132 131 129 125 121 118 116 118 122 124 126 130 130 130 129 126
185 185 184 183 185 184 183 181 177 174 172 173 175 175 173 170 168 165 161 155 151 150 150 149 146 143 140 138 139 139 139 138 138 140 141 142 142 140 138 136 136 135 134 134 133 133 132 130 132 132 131 131 131 131 131 131 128 126 123 121 126 130 131 131 132 131 129 126 122
183 182 181 181 181 180 178 176 174 173 172 172 174 173 172 169 167 163 159 155 153 153 152 149 145 142 141 141 141 140 140 139 141 142 144 145 144 143 141 140 140 138 136 134 132 132 133 133 132 132 131 130 131 132 134 135 133 131 129 129 133 134 135 135 134 132 128 125 122
181 180 179 178 177 176 174 172 172 172 172 172 173 172 170 168 165 161 158 157 154 152 151 148 145 144 143 143 143 141 141 141 143 143 143 144 142 142 142 142 141 139 137 135 136 136 136 136 135 134 134 133 134 136 139 140 137 135 134 136 139 140 139 138 137 133 129 127 125
179 177 177 176 174 173 172 172 172 173 173 173 172 170 167 165 162 160 157 155 151 150 149 147 145 145 146 146 144 143 142 143 144 143 142 141 140 141 142 143 143 142 141 141 142 141 139 137 137 137 137 138 138 139 141 143 142 141 142 144 145 145 143 141 138 135 132 131 130
176 175 175 174 172 172 173 173 173 174 175 173 170 167 163 160 159 158 155 151 148 147 147 146 145 146 148 147 145 143 143 144 144 143 141 140 142 145 147 148 147 147 146 145 144 141 139 139 140 140 139 139 139 140 143 146 146 147 148 150 149 147 144 142 139 137 136 136 135
175 174 174 173 173 174 175 175 175 175 175 172 168 162 157 155 155 154 151 148 147 147 147 145 145 147 148 146 144 144 143 143 144 143 141 141 146 150 153 152 151 150 147 143 140 138 137 139 140 140 139 139 139 141 144 148 148 149 150 151 150 147 144 143 142 141 141 140 140
175 174 174 173 174 176 177 177 176 175 173 169 163 157 152 149 150 149 148 147 147 148 148 146 145 145 146 146 145 144 144 145 145 144 144 146 151 155 155 153 151 147 143 138 135 135 135 137 138 138 137 137 138 142 146 148 148 149 149 149 147 145 144 145 145 145 145 144 144
175 174 174 174 176 177 177 177 174 172 168 164 158 153 149 147 147 147 148 148 149 149 149 146 144 144 146 146 147 146 146 147 147 147 148 150 154 155 154 151 147 143 139 135 134 134 134 135 134 134 134 135 137 141 145 146 146 146 146 145 144 144 146 147 148 148 146 146 144
175 175 174 175 176 177 177 175 171 167 163 159 154 151 148 147 147 148 149 151 152 151 149 146 144 145 146 147 148 147 147 148 149 149 150 152 153 152 149 146 143 139 136 134 134 134 134 133 132 132 132 133 136 139 141 143 143 143 143 142 143 144 147 148 148 147 146 145 144
176 175 175 175 176 176 175 172 167 162 158 155 152 150 149 149 149 150 152 155 155 153 149 146 144 145 146 146 145 144 144 146 147 147 147 148 149 147 145 143 139 136 133 132 132 132 133 133 132 132 133 134 136 138 139 140 140 140 141 141 142 144 146 146 145 144 143 143 143
177 176 175 174 174 173 171 168 162 158 155 154 153 152 152 152 152 153 154 156 155 153 150 146 145 144 145 144 141 139 136 135 138 140 141 142 144 144 142 140 136 134 132 131 131 131 132 132 133 134 134 135 137 138 139 139 139 139 140 140 141 142 142 141 140 139 140 142 145
178 177 176 174 172 170 167 163 158 155 154 154 154 154 153 154 154 155 154 154 153 152 150 147 146 145 145 143 138 134 129 121 126 131 134 137 139 139 138 136 135 133 131 131 130 131 132 134 135 135 135 136 137 139 139 139 140 140 140 139 138 137 136 134 135 138 140 142 145
178 177 175 173 171 168 164 159 156 155 155 156 155 154 153 154 154 153 152 150 150 150 150 148 148 147 146 143 138 133 128 119 121 125 130 134 135 135 134 134 134 133 132 130 131 132 133 134 133 132 132 135 138 140 140 141 141 140 138 135 132 130 128 129 132 134 137 140 147
177 175 174 172 169 166 162 158 156 156 156 155 153 153 152 153 151 150 148 148 148 148 147 146 146 146 144 141 137 133 130 125 124 125 129 133 134 134 134 135 135 135 134 133 133 133 132 129 126 126 127 132 139 141 142 143 142 140 137 134 131 128 127 128 131 135 142 151 161
175 174 174 172 169 165 161 158 156 156 155 154 152 152 151 149 147 146 145 145 145 144 143 140 140 140 139 136 135 134 134 133 131 131 133 136 136 137 136 136 136 137 137 137 139 138 135 130 127 128 131 137 142 143 144 145 143 142 140 138 137 136 136 139 143 149 157 167 172
174 174 174 172 169 166 162 158 156 155 154 152 151 150 148 146 144 143 143 143 142 140 137 133 133 133 133 134 135 136 137 137 136 137 139 142 141 140 139 138 139 139 139 140 143 143 141 139 138 140 142 146 145 145 146 146 146 145 145 144 143 144 146 150 152 155 159 164 164
173 173 173 172 169 165 160 157 155 153 151 150 149 148 146 144 143 143 142 140 138 136 133 132 132 133 134 135 137 138 138 139 140 142 144 146 145 144 143 142 141 139 140 145 147 147 145 144 144 146 148 150 147 147 147 148 149 149 149 149 150 151 153 155 156 156 155 149 131
170 171 171 170 166 162 158 155 152 151 150 149 149 147 146 145 143 142 141 138 136 134 132 132 133 134 136 137 139 140 141 140 143 145 147 148 147 147 147 144 142 141 145 151 151 151 149 147 148 149 150 150 148 148 149 149 150 151 152 153 155 157 158 158 158 156 151 140 126
168 168 168 167 164 161 157 153 151 150 150 150 149 148 146 144 143 142 140 138 137 135 133 133 135 136 137 139 143 144 143 143 145 147 149 149 148 148 147 144 143 145 150 154 155 154 153 151 152 152 152 149 146 146 147 148 151 153 156 158 160 161 161 161 159 156 151 144 140
166 166 166 165 163 160 156 153 152 151 150 150 148 146 145 144 143 142 142 141 140 140 139 139 139 139 140 143 143 143 143 144 146 148 149 149 148 147 145 143 142 148 153 157 157 156 155 154 154 154 152 149 146 146 148 149 152 156 158 161 162 163 164 163 160 158 154 150 149
165 165 165 165 162 159 157 155 153 151 150 148 147 146 145 144 144 144 145 146 146 147 146 146 145 146 147 147 144 143 143 145 147 149 150 150 148 147 145 143 144 150 156 159 158 158 157 156 155 154 152 149 146 145 147 150 153 156 159 162 163 163 163 162 160 158 156 154 152
166 166 165 164 161 159 157 154 152 151 150 149 149 149 148 147 147 148 150 150 150 149 147 147 148 148 147 146 145 145 146 146 149 151 152 151 149 147 145 144 146 152 157 161 160 159 158 157 156 154 152 150 147 146 148 151 154 157 159 160 161 161 161 160 160 159 158 155 154
166 165 164 162 160 158 156 154 152 151 151 151 151 151 150 149 150 150 151 151 149 148 148 149 149 147 146 145 146 147 148 148 152 154 155 152 148 145 144 144 148 154 159 162 161 159 158 157 156 154 152 150 147 146 148 150 152 154 155 156 158 159 160 159 160 160 159 156 154
165 164 163 161 159 157 155 154 153 153 153 153 154 153 151 149 148 149 149 150 149 150 151 152 151 150 149 149 150 150 151 152 154 155 154 151 147 144 143 144 149 156 161 163 161 160 158 158 157 154 152 149 145 145 147 148 149 149 151 153 156 158 158 157 157 158 158 156 154
164 162 161 159 158 156 155 154 154 153 153 154 154 153 151 148 148 149 150 151 152 153 153 153 153 153 152 152 152 152 153 153 154 154 152 150 147 145 146 147 151 159 163 163 161 160 159 158 156 154 151 147 144 144 145 146 144 145 146 148 150 150 150 149 149 151 152 154 152
163 161 160 158 157 156 155 154 154 153 154 154 154 153 151 150 151 151 152 151 151 151 151 151 151 150 150 150 151 151 152 152 153 153 153 151 149 147 147 148 152 159 163 163 161 160 159 158 156 153 150 145 143 143 144 144 143 143 144 144 143 142 141 139 138 139 142 149 150
163 161 160 158 157 156 155 154 154 154 155 155 154 153 153 151 151 151 150 148 147 147 148 148 148 148 148 149 151 152 153 152 153 153 154 153 151 149 148 149 153 159 163 163 161 160 159 158 155 153 149 145 144 144 145 144 143 145 146 146 146 145 144 141 137 133 134 149 155
164 162 160 158 157 157 156 156 156 156 157 157 156 155 153 151 149 148 147 147 147 147 148 149 150 151 152 153 153 154 154 153 153 154 154 154 153 151 150 150 154 159 163 163 162 160 159 158 156 153 151 147 146 146 146 146 145 148 150 151 150 149 148 146 144 144 150 194 197
165 163 160 158 158 157 157 157 158 159 159 158 157 155 153 150 149 148 149 149 150 150 151 153 155 155 154 152 151 150 152 154 155 155 155 155 154 153 152 151 155 159 162 164 162 161 159 158 156 155 153 150 149 149 148 148 149 152 154 155 152 152 152 151 151 155 165 192 208
165 163 161 160 159 159 159 160 161 161 159 157 156 154 153 151 149 150 151 153 152 152 153 155 156 155 152 149 146 147 150 154 157 156 156 155 155 154 153 153 155 159 162 164 163 161 160 158 158 157 156 152 151 150 150 149 152 154 155 155 153 154 155 155 157 160 168 185 202
164 163 162 161 160 160 161 162 162 161 159 156 155 154 153 152 149 149 150 150 150 151 151 153 154 152 149 146 144 146 149 154 158 158 157 155 154 154 154 154 155 158 161 164 163 162 160 159 159 158 157 153 153 152 150 151 153 155 157 156 156 157 159 161 163 165 169 178 192
163 163 163 163 162 163 163 163 162 160 157 156 155 154 152 150 147 147 148 147 148 147 148 149 150 149 147 144 144 146 150 154 157 158 157 153 153 154 155 155 155 157 160 163 163 162 160 160 160 160 160 156 155 153 151 152 155 157 159 159 159 160 161 163 166 168 171 176 181